COSMOS 2251 DEB, 34615

Orbit data source: Space-Track

COSMOS 2251 DEB, 34615 is space debris in LEO originally from a launch on Wed, 16 Jun 1993 UTC launched from the Plesetsk Missile And Space Complex (PKMTR). The debris from Iridium 33, an American commercial communications satellite, has been tracked extensively since its accidental collision with the defunct Russian satellite Cosmos 2251 in 2009. This event, occurring at high speed in low Earth orbit (LEO), generated thousands of pieces of space debris, significantly increasing the risk of further collisions. The Iridium 33 debris cloud has impacted space traffic management and orbital debris mitigation strategies, making it a subject of ongoing study in space situational awareness.

Loading next visibility...
Identifier
34615, 1993-036WL
Orbit
LEO
Country
Flag of CISCIS
Related business
Manufacturer
Unknown
Mission
Spacecraft
Bus & Motor
Unknown
Mass
Unknown
Launch date (UTC)
1993-06-16 (33 years ago)
Launch vehicle
Unknown
Launch site
Plesetsk Missile And Space Complex (PKMTR)
Object type
Payload
Rocket body
Debris
Shape & HBR
Unknown shape, 0.1 m
Radar Cross Section
Medium (>0.1 m² and <1 m²)

Expand to show TLE details & history
Last TLE update: 21 hours ago

TLE from 21 hours ago
0 COSMOS 2251 DEB
1 34615U 93036WL  26206.22179831  .00000396  00000-0  38222-3 0  9997
2 34615  74.0072 294.0640 0397123 154.8421 236.8768 13.52458780858505
Epoch: 2026-07-25T05:19Z
TLE epoch observation values (Epoch: 2026-07-25T05:19:23.373Z)
Latitude
26.87769°
Longitude
-80.41012°
Altitude
1,235.595 km
Speed
7.157 km/s
True Right ascension
20h 09m 29s
True Declination
26° 44' 53"
Sunlit
Object was in full shadow at epoch
Visualization orbit readout
Latitude
Unknown
Longitude
Unknown
Altitude
Unknown
Speed
Unknown
Apparent Right ascension
Unknown
Apparent Declination
Unknown
Sunlit
N/A
Visualization observer readout
Local Sidereal Time
15:22:27
Azimuth
Unknown
Elevation
Unknown
Doppler factor
Unknown
Orbital elements
Apogee altitude
1,356.363 km
Perigee altitude
765.517 km
Semi-major axis
7,439.077 km
Eccentricity
0.03971
Inclination
74.0072°
RAAN
294.064°
Arg. of periapsis
154.8421°
True anomaly
233.16894°
Mean anomaly
236.8768°
Eccentric anomaly
235.01266°
Mean motion
3.38271 °/min
Orbital period
106.42 mins
BSTAR
0.00038222

Documentation

Showing up to 5 results
|